| time (UTC) | temp C | wind direction | speed KPH | gust KPH | rain 1hr cm | rain 24hr cm | rain mn cm | humidity % | barometer mb |
| 20260904021558 | 14 | 0 | 0.0 | 0.0 | 0.03 | 1.47 | 1.47 | 83 | 1010.3 |
| 20260904020101 | 14 | 0 | 0.0 | 3.2 | 0.03 | 1.47 | 1.47 | 82 | 1010.4 |
| 20260904014617 | 15 | 0 | 0.0 | 3.2 | 0.00 | 1.47 | 1.47 | 81 | 1010.4 |
| 20260904013059 | 15 | 0 | 0.0 | 3.2 | 0.03 | 1.47 | 1.47 | 81 | 1010.3 |
| 20260904011556 | 15 | 43 | 0.0 | 9.7 | 0.03 | 1.47 | 1.47 | 81 | 1010.2 |
| 20260904010110 | 15 | 52 | 0.0 | 6.4 | 0.03 | 1.47 | 1.47 | 81 | 1010.1 |
| 20260904004558 | 15 | 254 | 0.0 | 4.8 | 0.05 | 1.47 | 1.47 | 82 | 1010.2 |
| 20260904003101 | 15 | 201 | 3.2 | 8.0 | 0.03 | 1.45 | 1.45 | 79 | 1010.1 |
| 20260904001556 | 15 | 168 | 0.0 | 12.9 | 0.05 | 1.45 | 1.45 | 76 | 1010.1 |
| 20260904000054 | 16 | 319 | 1.6 | 9.7 | 0.05 | 1.45 | 1.45 | 77 | 1010.2 |
| 20260903234553 | 16 | 83 | 1.6 | 11.3 | 0.05 | 1.42 | 1.42 | 77 | 1010.3 |
| 20260903233059 | 16 | 65 | 3.2 | 11.3 | 0.08 | 1.42 | 1.42 | 79 | 1010.3 |
| 20260903231557 | 15 | 30 | 1.6 | 9.7 | 0.05 | 1.40 | 1.40 | 82 | 1010.3 |
| 20260903230100 | 15 | 0 | 3.2 | 8.0 | 0.08 | 1.40 | 1.40 | 85 | 1010.3 |
| 20260903224548 | 15 | 82 | 1.6 | 8.0 | 0.08 | 1.47 | 1.37 | 83 | 1010.4 |
| 20260903223107 | 15 | 0 | 0.0 | 4.8 | 0.10 | 1.47 | 1.32 | 81 | 1010.4 |
| 20260903221555 | 16 | 0 | 1.6 | 11.3 | 0.13 | 1.47 | 1.32 | 81 | 1010.3 |
| 20260903220050 | 16 | 61 | 0.0 | 8.0 | 0.15 | 1.45 | 1.32 | 85 | 1010.3 |
| 20260903214601 | 15 | 18 | 1.6 | 12.9 | 0.13 | 1.57 | 1.27 | 92 | 1010.3 |
| 20260903213053 | 14 | 0 | 0.0 | 8.0 | 0.13 | 1.55 | 1.24 | 93 | 1010.6 |
| 20260903211607 | 14 | 0 | 1.6 | 11.3 | 0.13 | 1.52 | 1.22 | 94 | 1010.4 |
| 20260903210048 | 14 | 78 | 1.6 | 8.0 | 0.13 | 1.47 | 1.17 | 95 | 1010.3 |
| 20260903204556 | 13 | 93 | 0.0 | 4.8 | 0.13 | 1.63 | 1.14 | 96 | 1010.4 |
| 20260903203053 | 12 | 92 | 0.0 | 4.8 | 0.13 | 1.60 | 1.12 | 96 | 1010.4 |
| 20260903201551 | 12 | 0 | 0.0 | 14.5 | 0.13 | 1.55 | 1.07 | 95 | 1010.4 |
| 20260903200056 | 12 | 321 | 3.2 | 9.7 | 0.13 | 1.52 | 1.04 | 95 | 1010.4 |
| 20260903194554 | 12 | 0 | 0.0 | 3.2 | 0.10 | 1.63 | 1.02 | 94 | 1010.6 |
| 20260903193052 | 12 | 0 | 0.0 | 4.8 | 0.10 | 1.60 | 0.99 | 94 | 1010.5 |
| 20260903191558 | 12 | 119 | 0.0 | 3.2 | 0.05 | 1.55 | 0.94 | 95 | 1010.7 |
| 20260903190104 | 12 | 111 | 0.0 | 4.8 | 0.05 | 1.52 | 0.91 | 95 | 1010.7 |
| 20260903184606 | 12 | 211 | 0.0 | 3.2 | 0.05 | 1.63 | 0.91 | 95 | 1010.7 |
| 20260903183051 | 11 | 0 | 1.6 | 9.7 | 0.03 | 1.60 | 0.89 | 93 | 1011.0 |
| 20260903181558 | 12 | 149 | 3.2 | 6.4 | 0.03 | 1.60 | 0.89 | 93 | 1010.6 |
| 20260903180100 | 12 | 0 | 0.0 | 6.4 | 0.00 | 1.57 | 0.86 | 94 | 1010.6 |
| 20260903174554 | 12 | 177 | 3.2 | 4.8 | 0.00 | 1.68 | 0.86 | 93 | 1010.7 |
| 20260903173050 | 13 | 0 | 0.0 | 4.8 | 0.03 | 1.68 | 0.86 | 93 | 1010.4 |
| 20260903171603 | 13 | 29 | 1.6 | 4.8 | 0.03 | 1.68 | 0.86 | 96 | 1010.5 |
| 20260903170050 | 12 | 137 | 1.6 | 3.2 | 0.05 | 1.68 | 0.86 | 95 | 1010.6 |
| 20260903164606 | 12 | 136 | 0.0 | 3.2 | 0.08 | 1.78 | 0.86 | 96 | 1010.6 |
| 20260903163055 | 12 | 0 | 1.6 | 6.4 | 0.08 | 1.75 | 0.84 | 96 | 1010.5 |
| 20260903161555 | 12 | 0 | 0.0 | 8.0 | 0.13 | 1.75 | 0.84 | 96 | 1010.4 |
| 20260903160106 | 12 | 0 | 0.0 | 3.2 | 0.13 | 1.73 | 0.81 | 96 | 1010.3 |
| 20260903154600 | 12 | 0 | 1.6 | 6.4 | 0.15 | 1.75 | 0.79 | 96 | 1010.4 |
| 20260903153101 | 12 | 65 | 0.0 | 3.2 | 0.15 | 1.73 | 0.76 | 96 | 1010.3 |
| 20260903151553 | 12 | 65 | 0.0 | 1.6 | 0.15 | 1.68 | 0.71 | 96 | 1010.3 |
| 20260903150058 | 12 | 0 | 0.0 | 1.6 | 0.15 | 1.65 | 0.69 | 96 | 1010.1 |
| 20260903144553 | 12 | 65 | 1.6 | 3.2 | 0.13 | 1.63 | 0.64 | 96 | 1010.0 |
| 20260903143107 | 12 | 65 | 0.0 | 3.2 | 0.15 | 1.60 | 0.61 | 96 | 1010.0 |
| 20260903141552 | 12 | 0 | 0.0 | 0.0 | 0.15 | 1.55 | 0.56 | 96 | 1010.0 |
| 20260903140050 | 11 | 0 | 0.0 | 3.2 | 0.18 | 1.52 | 0.53 | 96 | 1009.8 |
| 20260903134601 | 12 | 0 | 0.0 | 3.2 | 0.20 | 1.47 | 0.51 | 96 | 1009.7 |
| 20260903133107 | 11 | 78 | 1.6 | 6.4 | 0.20 | 1.45 | 0.46 | 96 | 1009.6 |
| 20260903131551 | 12 | 98 | 1.6 | 9.7 | 0.18 | 1.40 | 0.41 | 95 | 1009.6 |
| 20260903130112 | 12 | 98 | 0.0 | 3.2 | 0.15 | 1.32 | 0.36 | 95 | 1009.6 |
| 20260903124605 | 12 | 85 | 0.0 | 3.2 | 0.13 | 1.30 | 0.30 | 95 | 1009.6 |
| 20260903123051 | 12 | 76 | 1.6 | 4.8 | 0.13 | 1.24 | 0.25 | 95 | 1009.6 |
| 20260903121549 | 12 | 0 | 0.0 | 1.6 | 0.10 | 1.22 | 0.23 | 95 | 1009.8 |
| 20260903120051 | 12 | 0 | 0.0 | 1.6 | 0.10 | 1.19 | 0.20 | 95 | 1009.6 |
| 20260903114554 | 12 | 0 | 0.0 | 3.2 | 0.08 | 1.17 | 0.18 | 95 | 1009.7 |
| 20260903113049 | 12 | 0 | 0.0 | 1.6 | 0.05 | 1.12 | 0.13 | 95 | 1009.7 |
| 20260903111548 | 12 | 0 | 0.0 | 3.2 | 0.05 | 1.12 | 0.13 | 95 | 1009.7 |
| 20260903110054 | 12 | 236 | 0.0 | 3.2 | 0.05 | 1.09 | 0.10 | 95 | 1009.6 |
| 20260903104552 | 12 | 0 | 0.0 | 3.2 | 0.05 | 1.09 | 0.10 | 95 | 1009.6 |
| 20260903103055 | 12 | 0 | 0.0 | 0.0 | 0.03 | 1.07 | 0.08 | 95 | 1009.6 |
| 20260903101554 | 12 | 0 | 0.0 | 8.0 | 0.03 | 1.07 | 0.08 | 95 | 1009.7 |
| 20260903100100 | 12 | 0 | 0.0 | 1.6 | 0.00 | 1.04 | 0.05 | 95 | 1009.7 |
| 20260903094606 | 12 | 69 | 0.0 | 3.2 | 0.03 | 1.04 | 0.05 | 95 | 1009.6 |
| 20260903093052 | 12 | 0 | 0.0 | 3.2 | 0.03 | 1.04 | 0.05 | 95 | 1009.6 |
| 20260903091600 | 12 | 323 | 0.0 | 3.2 | 0.03 | 1.04 | 0.05 | 94 | 1009.7 |
| 20260903090105 | 12 | 0 | 0.0 | 3.2 | 0.05 | 1.04 | 0.05 | 94 | 1009.6 |
| 20260903084552 | 12 | 0 | 0.0 | 4.8 | 0.03 | 1.02 | 0.03 | 94 | 1009.8 |
| 20260903083114 | 12 | 0 | 0.0 | 1.6 | 0.03 | 1.02 | 0.03 | 94 | 1009.9 |
| 20260903081620 | 12 | 0 | 0.0 | 3.2 | 0.03 | 1.02 | 0.03 | 94 | 1009.9 |
| 20260903080100 | 12 | 0 | 0.0 | 3.2 | 0.00 | 0.99 | 0.00 | 94 | 1009.9 |
| 20260903074602 | 12 | 0 | 0.0 | 8.0 | 0.00 | 0.99 | 0.00 | 93 | 1010.0 |
| 20260903073103 | 12 | 165 | 3.2 | 12.9 | 0.00 | 0.99 | 0.00 | 93 | 1010.0 |
| 20260903071617 | 12 | 0 | 0.0 | 6.4 | 0.00 | 0.99 | 0.00 | 94 | 1010.0 |
| 20260903070050 | 12 | 163 | 0.0 | 3.2 | 0.00 | 0.99 | 0.00 | 95 | 1009.8 |
| 20260903064559 | 11 | 0 | 0.0 | 0.0 | 0.00 | 0.99 | 0.99 | 95 | 1009.9 |
| 20260903063059 | 11 | 0 | 0.0 | 0.0 | 0.00 | 0.99 | 0.99 | 95 | 1009.8 |
| 20260903061555 | 11 | 0 | 0.0 | 3.2 | 0.00 | 0.99 | 0.99 | 95 | 1009.8 |
| 20260903060119 | 11 | 163 | 0.0 | 3.2 | 0.00 | 0.99 | 0.99 | 95 | 1010.0 |
| 20260903054558 | 11 | 0 | 0.0 | 3.2 | 0.00 | 0.99 | 0.99 | 95 | 1009.9 |
| 20260903053058 | 11 | 135 | 0.0 | 3.2 | 0.00 | 0.99 | 0.99 | 95 | 1009.9 |
| 20260903051607 | 11 | 0 | 1.6 | 4.8 | 0.00 | 0.99 | 0.99 | 94 | 1010.0 |
| 20260903050059 | 11 | 226 | 0.0 | 3.2 | 0.00 | 0.99 | 0.99 | 94 | 1010.0 |
| 20260903044553 | 11 | 0 | 0.0 | 4.8 | 0.00 | 0.99 | 0.99 | 94 | 1009.8 |
| 20260903043051 | 11 | 229 | 1.6 | 4.8 | 0.00 | 0.99 | 0.99 | 94 | 1009.7 |
| 20260903041556 | 11 | 229 | 0.0 | 3.2 | 0.00 | 0.99 | 0.99 | 94 | 1009.6 |
| 20260903040105 | 11 | 0 | 0.0 | 3.2 | 0.00 | 0.99 | 0.99 | 93 | 1009.6 |
| 20260903034551 | 11 | 0 | 0.0 | 3.2 | 0.00 | 0.99 | 0.99 | 93 | 1009.2 |
| 20260903033050 | 11 | 0 | 0.0 | 0.0 | 0.00 | 0.99 | 0.99 | 92 | 1009.1 |
| 20260903031547 | 12 | 229 | 1.6 | 6.4 | 0.00 | 0.99 | 0.99 | 92 | 1008.9 |
| 20260903030054 | 12 | 227 | 3.2 | 6.4 | 0.00 | 0.99 | 0.99 | 92 | 1008.9 |
| 20260903024551 | 12 | 199 | 1.6 | 4.8 | 0.00 | 0.99 | 0.99 | 90 | 1008.8 |
| 20260903023102 | 13 | 215 | 1.6 | 6.4 | 0.00 | 0.99 | 0.99 | 89 | 1008.7 |